DW6513 Weather Reports


time (UTC)temp
F
wind
direction
speed
knots
gust
knots
rain 1hr
in
rain 24hr
in
rain mn
in
humidity
%
barometer
mb
20260508151803 64 213 1.7 4.3 0.00 0.00 0.00 57 1012.3
20260508151303 64 244 1.7 4.3 0.00 0.00 0.00 57 1012.3
20260508150802 64 145 1.7 4.3 0.00 0.00 0.00 57 1012.7
20260508145803 64 145 4.3 7.0 0.00 0.00 0.00 56 1012.7
20260508144803 65 167 5.2 12.2 0.00 0.00 0.00 56 1012.9
20260508144302 65 145 6.1 12.2 0.00 0.00 0.00 56 1012.9
20260508143803 65 145 6.1 10.4 0.00 0.00 0.00 56 1012.9
20260508143303 65 133 4.3 12.2 0.00 0.00 0.00 57 1012.9
20260508142803 65 190 2.6 12.2 0.00 0.00 0.00 58 1012.9
20260508141803 64 190 1.7 4.3 0.00 0.00 0.00 62 1012.9
20260508141303 63 192 2.6 5.2 0.00 0.00 0.00 63 1012.9
20260508140803 62 190 2.6 4.3 0.00 0.00 0.00 64 1012.7
20260508140303 62 253 1.7 4.3 0.00 0.00 0.00 65 1012.7
20260508135803 61 145 1.7 7.0 0.00 0.00 0.00 65 1012.7
20260508135306 61 132 1.7 7.8 0.00 0.00 0.00 66 1012.7
20260508134803 60 190 1.7 7.8 0.00 0.00 0.00 66 1012.6
20260508133803 60 190 0.9 5.2 0.00 0.00 0.00 69 1012.6
20260508133303 59 205 0.0 5.2 0.00 0.00 0.00 69 1012.6
20260508132803 58 190 0.0 0.0 0.00 0.00 0.00 70 1012.6
20260508132306 58 229 0.9 4.3 0.00 0.00 0.00 70 1012.6
20260508131803 58 123 0.9 1.7 0.00 0.00 0.00 71 1012.6
20260508131303 58 222 0.9 4.3 0.00 0.00 0.00 70 1012.6
20260508124803 55 303 0.0 0.0 0.00 0.00 0.00 71 1012.8
20260508123803 55 190 0.0 0.0 0.00 0.00 0.00 72 1012.8
20260508123303 55 176 0.0 0.0 0.00 0.00 0.00 72 1012.8
20260508122803 54 347 0.0 0.0 0.00 0.00 0.00 72 1012.7
20260508121803 54 347 0.0 0.0 0.00 0.00 0.00 73 1012.7
20260508121303 54 206 0.0 0.0 0.00 0.00 0.00 73 1012.7
20260508115306 52 96 0.0 0.0 0.00 0.00 0.00 73 1013.0
20260508114804 52 280 0.9 0.0 0.00 0.00 0.00 65 1012.8
20260508044304 56 145 1.7 5.2 0.00 0.00 0.00 55 1014.8
20260508043804 55 145 0.0 2.6 0.00 0.00 0.00 55 1014.8
20260508043304 55 150 0.0 0.0 0.00 0.00 0.00 55 1014.8
20260508042804 55 167 0.0 0.0 0.00 0.00 0.00 55 1014.8
20260508042306 56 167 0.0 0.0 0.00 0.00 0.00 55 1014.8
20260508041804 56 167 0.0 0.0 0.00 0.00 0.00 55 1014.8
20260508041304 56 145 0.0 0.0 0.00 0.00 0.00 55 1014.8
20260508040804 56 145 0.0 0.0 0.00 0.00 0.00 54 1014.8
20260508040303 56 145 0.0 0.0 0.00 0.00 0.00 54 1014.8
20260508034804 56 145 0.0 0.0 0.00 0.00 0.00 53 1014.9
20260508034303 56 145 0.0 0.0 0.00 0.00 0.00 53 1014.9
20260508033803 56 145 0.0 0.0 0.00 0.00 0.00 53 1014.9
20260508033303 56 145 0.0 0.0 0.00 0.00 0.00 53 1014.9
20260508032803 57 145 0.0 0.0 0.00 0.00 0.00 52 1014.8
20260508032306 57 145 0.0 1.7 0.00 0.00 0.00 52 1014.8
20260508031804 57 145 0.0 1.7 0.00 0.00 0.00 52 1014.8
20260508031303 57 145 0.0 0.0 0.00 0.00 0.00 52 1014.8
20260508030803 58 145 0.0 1.7 0.00 0.00 0.00 51 1014.7
20260508030304 58 145 0.0 1.7 0.00 0.00 0.00 50 1014.7
20260508025804 58 145 0.0 0.0 0.00 0.00 0.00 50 1014.7
20260508025306 58 145 0.0 0.0 0.00 0.00 0.00 49 1014.7
20260508024804 58 145 0.0 0.0 0.00 0.00 0.00 49 1014.8
20260508024303 58 145 0.0 0.0 0.00 0.00 0.00 49 1014.8
20260508023804 59 145 0.0 0.0 0.00 0.00 0.00 48 1014.8
20260508022804 59 145 0.0 0.0 0.00 0.00 0.00 46 1014.7
20260508022306 59 145 0.0 0.0 0.00 0.00 0.00 46 1014.7
20260508021804 60 145 0.0 0.0 0.00 0.00 0.00 45 1014.7
20260508021304 60 145 0.0 0.0 0.00 0.00 0.00 44 1014.7
20260508020304 60 145 0.0 0.0 0.00 0.00 0.00 44 1014.4
20260508015803 61 145 0.0 0.0 0.00 0.00 0.00 43 1014.4
20260508015305 61 155 0.0 0.0 0.00 0.00 0.00 42 1014.4
20260508014804 61 190 0.0 0.0 0.00 0.00 0.00 41 1014.2
20260508014303 62 190 0.0 0.0 0.00 0.00 0.00 41 1014.2
20260508013804 62 190 0.0 0.0 0.00 0.00 0.00 40 1014.2
20260508013304 62 190 0.0 0.0 0.00 0.00 0.00 39 1014.2
20260508012803 62 190 0.0 0.0 0.00 0.00 0.00 39 1014.0
20260508012307 63 190 0.0 0.0 0.00 0.00 0.00 38 1014.0
20260508011304 64 190 0.0 0.0 0.00 0.00 0.00 37 1014.0
20260508010803 64 190 0.0 0.0 0.00 0.00 0.00 37 1013.7
20260508010304 64 190 0.0 0.0 0.00 0.00 0.00 37 1013.7
20260508005803 65 190 0.0 0.0 0.00 0.00 0.00 36 1013.7
20260508005305 66 145 0.0 0.0 0.00 0.00 0.00 36 1013.7
20260508004803 67 145 0.9 2.6 0.00 0.00 0.00 35 1013.6
20260508004304 67 250 1.7 2.6 0.00 0.00 0.00 35 1013.6
20260508003305 67 285 1.7 2.6 0.00 0.00 0.00 34 1013.6
20260508002804 67 145 1.7 4.3 0.00 0.00 0.00 35 1013.8
20260508002306 66 158 1.7 7.0 0.00 0.00 0.00 34 1013.8
20260508001803 66 123 1.7 7.0 0.00 0.00 0.00 34 1013.8
20260508000804 67 167 5.2 7.8 0.00 0.00 0.00 33 1013.8
20260508000305 67 145 4.3 8.7 0.00 0.00 0.00 32 1013.8
20260507235306 67 150 3.5 5.2 0.00 0.00 0.00 33 1013.8
20260507234804 67 145 5.2 5.2 0.00 0.00 0.00 32 1013.3
20260507234304 67 162 5.2 10.4 0.00 0.00 0.00 32 1013.3
20260507233804 68 167 5.2 5.2 0.00 0.00 0.00 31 1013.3
20260507233304 68 157 6.1 10.4 0.00 0.00 0.00 31 1013.3
20260507232803 69 145 5.2 7.8 0.00 0.00 0.00 30 1013.2
20260507232306 69 126 5.2 10.4 0.00 0.00 0.00 30 1013.2
20260507231303 71 162 4.3 11.3 0.00 0.00 0.00 29 1013.2
20260507230804 72 145 5.2 7.0 0.00 0.00 0.00 28 1013.8
20260507230303 72 180 5.2 11.3 0.00 0.00 0.00 28 1013.8
20260507225306 73 167 5.2 8.7 0.00 0.00 0.00 27 1013.8
20260507223801 73 123 4.3 7.8 0.00 0.00 0.00 27 1013.8
20260507222802 72 167 6.1 7.8 0.00 0.00 0.00 29 1013.8
20260507222305 73 162 7.0 8.7 0.00 0.00 0.00 28 1013.8
20260507221801 73 145 7.0 13.0 0.00 0.00 0.00 29 1013.8
20260507221302 73 292 5.2 13.0 0.00 0.00 0.00 27 1013.8
20260507220802 73 167 4.3 11.3 0.00 0.00 0.00 27 1014.1
20260507220302 73 210 4.3 7.0 0.00 0.00 0.00 28 1014.1
20260507215801 73 325 5.2 19.1 0.00 0.00 0.00 29 1014.1
20260507214802 73 123 7.0 13.0 0.00 0.00 0.00 29 1014.0
20260507214301 72 207 6.1 12.2 0.00 0.00 0.00 29 1014.0
20260507213802 71 190 5.2 8.7 0.00 0.00 0.00 30 1014.0
20260507213302 71 145 6.1 14.8 0.00 0.00 0.00 30 1012.8
20260507212802 73 145 6.1 7.8 0.00 0.00 0.00 28 1013.3
20260507212306 73 112 5.2 14.8 0.00 0.00 0.00 29 1013.3
20260507211802 73 280 4.3 7.0 0.00 0.00 0.00 30 1013.3
20260507211302 71 145 5.2 7.8 0.00 0.00 0.00 30 1013.3
20260507210802 71 167 5.2 7.0 0.00 0.00 0.00 31 1013.6
20260507210302 72 145 6.1 13.0 0.00 0.00 0.00 31 1013.6
20260507205802 72 280 5.2 13.0 0.00 0.00 0.00 32 1013.6
20260507205302 70 179 4.3 11.3 0.00 0.00 0.00 32 1013.6
20260507204802 68 167 5.2 7.0 0.00 0.00 0.00 32 1013.8
20260507204301 69 4 5.2 11.3 0.00 0.00 0.00 32 1013.8
20260507203802 70 167 5.2 12.2 0.00 0.00 0.00 31 1013.8
20260507202801 69 213 6.1 14.8 0.00 0.00 0.00 32 1014.3
20260507202306 69 128 5.2 14.8 0.00 0.00 0.00 32 1014.3
20260507201802 70 123 6.1 7.0 0.00 0.00 0.00 31 1014.3
20260507201302 70 145 6.1 7.8 0.00 0.00 0.00 31 1014.3
20260507200802 71 145 5.2 17.4 0.00 0.00 0.00 31 1014.1
20260507195802 72 145 5.2 11.3 0.00 0.00 0.00 29 1014.1
20260507195305 72 145 4.3 10.4 0.00 0.00 0.00 29 1014.1
20260507194801 71 145 5.2 10.4 0.00 0.00 0.00 30 1014.3
20260507194302 71 145 5.2 13.0 0.00 0.00 0.00 31 1014.3
20260507193802 71 257 6.1 7.8 0.00 0.00 0.00 30 1014.3
20260507192801 71 145 5.2 15.6 0.00 0.00 0.00 31 1014.7
20260507192305 72 145 4.3 6.1 0.00 0.00 0.00 31 1014.7
20260507191802 69 10 5.2 10.4 0.00 0.00 0.00 31 1014.7
20260507191302 70 198 5.2 10.4 0.00 0.00 0.00 33 1014.7
20260507190802 70 145 6.1 7.0 0.00 0.00 0.00 32 1014.8
20260507190302 70 173 6.1 7.8 0.00 0.00 0.00 34 1014.8
20260507185802 69 145 5.2 10.4 0.00 0.00 0.00 33 1014.8
20260507185305 69 131 5.2 10.4 0.00 0.00 0.00 32 1014.8
20260507184802 69 325 4.3 10.4 0.00 0.00 0.00 33 1014.7
20260507184301 69 129 4.3 7.8 0.00 0.00 0.00 36 1014.7
20260507183802 69 145 5.2 10.4 0.00 0.00 0.00 37 1014.7
20260507183302 69 150 5.2 10.4 0.00 0.00 0.00 35 1014.7
20260507182802 68 280 5.2 8.7 0.00 0.00 0.00 36 1015.4
20260507182306 68 129 6.1 12.2 0.00 0.00 0.00 36 1015.4
20260507181802 67 167 6.1 12.2 0.00 0.00 0.00 35 1015.4
20260507181302 67 139 5.2 10.4 0.00 0.00 0.00 37 1015.4
20260507180801 66 33 5.2 7.0 0.00 0.00 0.00 37 1015.9
20260507180302 65 111 6.1 10.4 0.00 0.00 0.00 36 1015.9
20260507175802 65 145 4.3 12.2 0.00 0.00 0.00 37 1015.9
20260507175306 64 135 2.6 12.2 0.00 0.00 0.00 37 1015.9
20260507174302 64 340 6.1 10.4 0.00 0.00 0.00 36 1015.6
20260507173802 63 190 7.0 12.2 0.00 0.00 0.00 37 1015.6
20260507173301 63 161 7.0 18.2 0.00 0.00 0.00 37 1015.6
20260507172802 62 123 7.0 11.3 0.00 0.00 0.00 37 1016.2
20260507172306 63 145 5.2 28.7 0.00 0.00 0.00 37 1016.2
20260507171801 62 303 4.3 10.4 0.00 0.00 0.00 39 1016.2
20260507171302 62 145 5.2 7.8 0.00 0.00 0.00 39 1016.2
20260507170802 62 303 4.3 7.8 0.00 0.00 0.00 40 1016.5
20260507165801 61 167 4.3 7.8 0.00 0.00 0.00 40 1016.5
20260507165301 62 207 4.3 18.2 0.00 0.00 0.00 39 1016.5
20260507164802 62 123 4.3 18.2 0.00 0.00 0.00 40 1016.8
20260507163802 61 145 5.2 10.4 0.00 0.00 0.00 40 1016.8
20260507162801 61 303 2.6 7.0 0.00 0.00 0.00 41 1016.8
20260507162306 61 231 2.6 4.3 0.00 0.00 0.00 42 1016.8
20260507161801 60 257 4.3 7.0 0.00 0.00 0.00 40 1016.8
20260507161302 60 306 4.3 6.1 0.00 0.00 0.00 41 1016.8
20260507160302 60 145 4.3 8.7 0.00 0.00 0.00 42 1017.4
20260507155802 59 145 4.3 8.7 0.00 0.00 0.00 43 1017.4
20260507155305 59 284 4.3 11.3 0.00 0.00 0.00 43 1017.4
20260507154802 59 145 4.3 11.3 0.00 0.00 0.00 45 1017.3
20260507154302 59 167 4.3 10.4 0.00 0.00 0.00 46 1017.3
20260507153802 58 145 4.3 8.7 0.00 0.00 0.00 49 1017.3
20260507153303 58 128 2.6 7.8 0.00 0.00 0.00 51 1017.3
20260507152802 58 145 4.3 5.2 0.00 0.00 0.00 51 1017.7
20260507152305 58 145 4.3 10.4 0.00 0.00 0.00 51 1017.7